パンスターズ彗星

C/2017 S2 ( PanSTARRS )

English version
Home page
Updated on March 3, 2018

---------------------------------------------------------------------

・ プロフィール

発見日 2017年9月16日
発見光度 20.9等
発見者 Pan-STARRS 1 telescope (Haleakala)

・ 写真集

・ 軌道要素

Epoch 2017 Sept. 4.0 TT = JDT 2458000.5
T 2017 Aug. 29.32438 TT                                 MPCW
q   3.6144428            (2000.0)            P               Q
n   0.01067245     Peri.  305.96855     +0.97177288     -0.13333870
a  20.4311664      Node    62.42910     +0.21306071     +0.85026414
e   0.8230917      Incl.   12.68298     -0.10130447     +0.50918728
P  92.35
From 61 observations 2017 Aug. 22-2018 Jan. 16, mean residual 0".3.

・ 光度変化

        m1 = 12.5 + 5 logΔ + 10.0 log r

---------------------------------------------------------------------

軌道要素はM.P.E.C. 2018-B155に掲載されたものです。
光度グラフはComet for Windowsで作成したものです。

---------------------------------------------------------------------

Copyright(C) Seiichi Yoshida (comet@aerith.net). All rights reserved.